Regional Weather Roundup
Issued by NWS Midland/Odessa, TX

Home | Current Version | Previous Version | Text Only | Print | Product List | Glossary On
Versions: 1 2 3 4 5 6 7 8 9 10 11 12 13 14 15 16 17 18 19 20 21 22 23 24 25 26 27 28 29 30 31 32 33 34 35 36 37 38 39 40 41 42 43 44 45 46 47 48 49 50
000
ASUS44 KMAF 090601
RWRMAF
MIDLAND AREA WEATHER ROUNDUP
NATIONAL WEATHER SERVICE MIDLAND TX
1200 AM CST FRI DEC 09 2016

...IN SOUTHWEST TEXAS AND SOUTHEAST NEW MEXICO...

CITY           SKY/WX    TMP DP  RH WIND       PRES   REMARKS
ALPINE         CLOUDY    26  26  96 CALM      30.54S
ANDREWS        CLOUDY    26  21  82 SE5       30.59S WCI  20
ARTESIA        CLOUDY    28  27  93 S10       30.53F WCI  19
BIG SPRING     PTCLDY    28  23  82 CALM      30.64F
CARLSBAD       CLOUDY    29  24  82 S10       30.54S WCI  20
DRYDEN           N/A     34  26  72 NE6       30.57S WCI  29
FORT STOCKTON  CLOUDY    28  25  88 E7        30.57S WCI  21
GUAD PASS      NOT AVBL
HOBBS          CLOUDY    27  23  86 SE8       30.54F WCI  18
MARFA          CLOUDY    27  25  92 NE5       30.47F WCI  22
MIDLAND AIRPK  CLOUDY    29  22  76 E3        30.61S
MIDLAND INTL   CLOUDY    28  20  71 E5        30.59S WCI  23
ODESSA         CLOUDY    28  20  71 SE6       30.59S WCI  22
PECOS          CLOUDY    29  26  88 E7        30.60S WCI  22
PRESIDIO       CLOUDY    37  28  70 NE8       30.51S WCI  31
SEMINOLE       CLOUDY    26  23  87 CALM      30.58F
SNYDER         CLOUDY    26  19  77 CALM      30.64R
WINK           CLOUDY    28  23  81 SE5       30.58S WCI  23
$$
...OTHER STATIONS IN TEXAS...

CITY           SKY/WX    TMP DP  RH WIND       PRES   REMARKS
ABILENE        CLOUDY    28  19  69 N3        30.65F
AMARILLO       CLOUDY    24  11  57 S15       30.50F WCI  11
AUSTIN         CLOUDY    37  20  50 N17       30.64R WCI  27
BROWNSVILLE    CLOUDY    43  40  89 NW17G31   30.48S WCI  35
CORPUS CHRISTI CLOUDY    42  32  67 N15       30.57S WCI  34
DALLAS FTW     PTCLDY    28  16  60 N9        30.67S WCI  19
DEL RIO        CLOUDY    39  27  62 N7        30.62S WCI  34
EL PASO        PTCLDY    31  24  75 CALM      30.45R
HOUSTON INT    CLOUDY    40  29  64 N15       30.58R WCI  32
LUBBOCK        CLOUDY    27  15  61 S10       30.55F WCI  17
SAN ANGELO     CLOUDY    30  22  72 NE6       30.63F WCI  24
SAN ANTONIO    CLOUDY    38  22  52 N16G25    30.61R WCI  29
WACO           NOT AVBL
WICHITA FALLS  NOT AVBL
$$
...OTHER LOCATIONS IN NEW MEXICO...

CITY           SKY/WX    TMP DP  RH WIND       PRES   REMARKS
ALAMAGORDO     NOT AVBL
ALBUQUERQUE    CLOUDY    28  18  66 CALM      30.37R
CANNON AFB     CLOUDY    27  21  80 S12       30.45F WCI  16
CLOVIS         CLOUDY    27  16  63 S13       30.45F WCI  16
HOLLOMAN AFB   CLOUDY    29  22  76 S5        30.49F WCI  24
ROSWELL        CLOUDY    29  21  72 S10       30.51S WCI  20
RUIDOSO        CLOUDY    23  19  86 NW7       30.38F WCI  15
SANTA FE       CLOUDY    17  11  77 NW3       30.33S
TRUTH OR CONSE CLEAR     34  25  69 S7        30.38F WCI  28
TUCUMCARI      CLOUDY    27  18  69 S5        30.42F WCI  22
$$




USA.gov is the U.S. government's official web portal to all federal, state and local government web resources and services.